Location: Namasale
(1.5000°N, 32.6167°E)
Time: 14:02:22
(UTC+00:00)

CSL-04 Debris - Pass Details

Date: 09 April 2020
Orbit: 827 x 848 km, 98.9° (Epoch: 04 June)

Event Time Altitude Azimuth Distance (km) Brightness Sun altitude
Rises 16:45:18 0° 160° (SSE) 3,408 7.1 -13.2°
Reaches altitude 10° 16:47:42 10° 156° (SSE) 2,471 6.3 -13.8°
Maximum altitude 16:53:05 59° 77° (ENE) 975 4.2 -15.2°
Drops below altitude 10° 16:58:26 10° 359° (N) 2,458 6.7 -16.5°
Sets 17:00:49 0° 355° (N) 3,388 7.5 -17.1°
